Date String (YYYY-MM-DD hh:mm:ss) UTC,Instrument flags,absolute air pressure of the measurement (hPa),sample flow rate (lpm),inlet stack bypass flow (lpm),air temperature of the measurement (°C),ambient temperature measured by the external sensor (°C),aerosol sample conditioner tube jacket temperature (°C),OPC LED temperature (°C),internal box temperature (°C),relative humidity of the measurement (%),span deviation,mass concentration of particles derived from Lorenz-Mie calculation of OPC scattering (μg/m³),mass concentration of particles derived from Lorenz-Mie calculation of OPC scattering (μg/m³),mass concentration of particles derived from Lorenz-Mie calculation of OPC scattering (μg/m³)
DateTimeUTC,F1_M11,P_M11,Q1_M11,Q2_M11,T1_M11,T2_M11,T3_M11,T4_M11,T5_M11,U1_M11,ZSPAN_M11,X0_M11,X2_M11,X1_M11
2023-06-05 09:00:00,SystemResetWarning,0835.2,5.00,000.00,030.2,028.6,000.0,038.6,031.8,28.9,0000.0,0003.81,0003.09,0002.82
2023-06-05 09:01:00,SystemResetWarning,0835.2,4.99,000.00,030.2,028.6,000.0,038.6,031.9,29.0,0000.0,0003.85,0003.11,0002.82
2023-06-05 09:02:00,SystemResetWarning,0835.2,5.00,000.00,030.2,028.6,000.0,038.6,031.9,29.0,0000.0,0003.81,0003.10,0002.80
2023-06-05 09:03:00,SystemResetWarning,0835.2,5.01,000.00,030.2,028.6,000.0,038.6,031.8,29.0,0000.0,0003.75,0003.06,0002.75
2023-06-05 09:04:00,SystemResetWarning,0835.2,5.01,000.00,030.2,028.6,000.0,038.6,031.8,29.0,0000.0,0003.86,0003.03,0002.66
2023-06-05 09:05:00,SystemResetWarning,0835.2,5.00,000.00,030.2,028.6,000.0,038.6,031.8,28.9,0000.0,0003.85,0002.98,0002.58
2023-06-05 09:06:00,SystemResetWarning,0835.3,5.00,000.00,030.2,028.6,000.0,038.6,031.8,28.8,0000.0,0003.97,0002.99,0002.57
2023-06-05 09:07:00,SystemResetWarning,0835.3,5.00,000.00,030.2,028.7,000.0,038.6,031.8,28.7,0000.0,0004.07,0003.00,0002.55
2023-06-05 09:08:00,SystemResetWarning,0835.3,5.00,000.00,030.2,028.7,000.0,038.6,031.9,28.8,0000.0,0004.17,0003.03,0002.53
2023-06-05 09:09:00,SystemResetWarning,0835.3,5.00,000.00,030.2,028.7,000.0,038.6,031.9,29.0,0000.0,0004.26,0003.07,0002.57
2023-06-05 09:10:00,SystemResetWarning,0835.3,4.99,000.00,030.2,028.7,000.0,038.6,031.8,29.1,0000.0,0004.31,0003.11,0002.64
2023-06-05 09:11:00,SystemResetWarning,0835.3,4.99,000.00,030.2,028.7,000.0,038.6,031.9,29.1,0000.0,0004.36,0003.15,0002.72
2023-06-05 09:12:00,SystemResetWarning,0835.3,5.00,000.00,030.2,028.7,000.0,038.6,031.9,29.2,0000.0,0004.28,0003.15,0002.76
2023-06-05 09:13:00,SystemResetWarning,0835.2,5.00,000.00,030.2,028.7,000.0,038.6,031.9,29.2,0000.0,0004.31,0003.16,0002.81
2023-06-05 09:14:00,SystemResetWarning,0835.2,5.01,000.00,030.2,028.7,000.0,038.6,031.9,29.2,0000.0,0004.59,0003.21,0002.87
2023-06-05 09:15:00,SystemResetWarning,0835.2,5.01,000.00,030.2,028.7,000.0,038.6,031.9,29.2,0000.0,0004.51,0003.22,0002.93
2023-06-05 09:16:00,SystemResetWarning,0835.2,5.00,000.00,030.2,028.7,000.0,038.6,031.9,29.2,0000.0,0004.59,0003.26,0003.00
2023-06-05 09:17:00,SystemResetWarning,0835.2,5.00,000.00,030.3,028.7,000.0,038.6,031.9,29.2,0000.0,0004.59,0003.30,0003.08
2023-06-05 09:18:00,SystemResetWarning,0835.2,5.00,000.00,030.2,028.7,000.0,038.6,031.9,29.2,0000.0,0004.72,0003.36,0003.13
2023-06-05 09:19:00,SystemResetWarning,0835.2,5.00,000.00,030.2,028.7,000.0,038.6,031.9,29.2,0000.4,0004.74,0003.40,0003.18
2023-06-05 09:20:00,SystemResetWarning,0835.2,5.00,000.00,030.2,028.7,000.0,038.6,031.9,29.2,0001.6,0004.79,0003.43,0003.21
2023-06-05 09:21:00,SystemResetWarning,0835.2,5.00,000.00,030.3,028.7,000.0,038.6,031.9,29.2,0001.5,0004.84,0003.46,0003.24
2023-06-05 09:22:00,SystemResetWarning,0835.2,5.00,000.00,030.3,028.7,000.0,038.6,031.9,29.2,0000.7,0004.85,0003.46,0003.24
2023-06-05 09:23:00,SystemResetWarning,0835.3,5.00,000.00,030.3,028.7,000.0,038.6,031.9,29.2,0000.1,0004.94,0003.48,0003.24
2023-06-05 09:24:00,SystemResetWarning,0835.3,5.00,000.00,030.3,028.7,000.0,038.6,031.9,29.2,0000.0,0004.90,0003.48,0003.24
2023-06-05 09:25:00,SystemResetWarning,0835.3,5.00,000.00,030.3,028.7,000.0,038.7,031.9,29.2,0000.0,0004.67,0003.46,0003.24
2023-06-05 09:26:00,SystemResetWarning,0835.3,5.00,000.00,030.3,028.7,000.0,038.7,031.9,29.3,0000.0,0004.70,0003.48,0003.26
2023-06-05 09:27:00,SystemResetWarning,0835.3,5.00,000.00,030.3,028.7,000.0,038.7,031.9,29.1,0000.0,0004.64,0003.46,0003.23
2023-06-05 09:28:00,SystemResetWarning,0835.3,5.00,000.00,030.3,028.7,000.0,038.7,031.9,29.0,0000.0,0004.55,0003.42,0003.21
2023-06-05 09:29:00,SystemResetWarning,0835.3,5.00,000.00,030.3,028.7,000.0,038.7,031.9,29.3,0000.0,0004.52,0003.44,0003.25
2023-06-05 09:30:00,SystemResetWarning,0835.3,5.00,000.00,030.3,028.7,000.0,038.7,031.9,29.2,0000.0,0004.55,0003.45,0003.27
2023-06-05 09:31:00,SystemResetWarning,0835.3,5.00,000.00,030.3,028.7,000.0,038.7,031.9,29.2,0000.0,0004.58,0003.46,0003.28
2023-06-05 09:32:00,SystemResetWarning,0835.3,5.00,000.00,030.3,028.7,000.0,038.7,031.9,29.5,0000.0,0004.56,0003.47,0003.29
2023-06-05 09:33:00,SystemResetWarning,0835.3,4.99,000.00,030.3,028.8,000.0,038.7,031.9,29.6,0000.0,0004.64,0003.51,0003.32
2023-06-05 09:34:00,SystemResetWarning,0835.3,4.99,000.00,030.3,028.8,000.0,038.7,031.9,29.5,0000.0,0004.64,0003.52,0003.34
2023-06-05 09:35:00,SystemResetWarning,0835.3,4.99,000.00,030.3,028.8,000.0,038.7,031.9,29.5,0000.0,0004.67,0003.55,0003.37
2023-06-05 09:36:00,SystemResetWarning,0835.3,5.01,000.00,030.3,028.8,000.0,038.7,031.9,29.7,0000.0,0004.82,0003.61,0003.41
2023-06-05 09:37:00,SystemResetWarning,0835.3,5.01,000.00,030.3,028.8,000.0,038.7,031.9,29.8,0000.0,0004.94,0003.68,0003.46
2023-06-05 09:38:00,SystemResetWarning,0835.3,5.00,000.00,030.3,028.8,000.0,038.7,031.9,29.9,0000.0,0005.20,0003.79,0003.55
2023-06-05 09:39:00,SystemResetWarning,0835.3,5.01,000.00,030.3,028.8,000.0,038.7,031.9,29.9,0000.0,0005.69,0003.94,0003.66
2023-06-05 09:40:00,SystemResetWarning,0835.2,5.00,000.00,030.3,028.8,000.0,038.7,031.9,30.0,0000.0,0005.73,0003.97,0003.70
2023-06-05 09:41:00,SystemResetWarning,0835.2,5.00,000.00,030.3,028.8,000.0,038.7,031.9,30.0,0000.7,0005.74,0004.01,0003.75
2023-06-05 09:42:00,SystemResetWarning,0835.2,4.99,000.00,030.3,028.8,000.0,038.7,031.9,29.9,0000.8,0005.68,0004.02,0003.79
2023-06-05 09:43:00,SystemResetWarning,0835.2,5.00,000.00,030.3,028.8,000.0,038.7,031.9,29.8,0000.6,0005.76,0004.05,0003.80
2023-06-05 09:44:00,SystemResetWarning,0835.2,5.00,000.00,030.3,028.8,000.0,038.7,031.9,29.8,0000.8,0005.79,0004.05,0003.79
2023-06-05 09:45:00,SystemResetWarning,0835.2,5.00,000.00,030.3,028.8,000.0,038.7,031.9,29.8,0001.2,0005.86,0004.10,0003.84
2023-06-05 09:46:00,SystemResetWarning,0835.2,5.00,000.00,030.3,028.8,000.0,038.7,031.9,29.9,0001.5,0005.91,0004.14,0003.88
2023-06-05 09:47:00,SystemResetWarning,0835.2,5.00,000.00,030.3,028.8,000.0,038.7,031.9,29.9,0001.1,0005.92,0004.15,0003.89
2023-06-05 09:48:00,SystemResetWarning,0835.2,5.00,000.00,030.3,028.8,000.0,038.7,031.9,29.9,0000.9,0006.00,0004.14,0003.89
2023-06-05 09:49:00,SystemResetWarning,0835.3,5.00,000.00,030.3,028.8,000.0,038.7,031.9,29.9,0001.1,0005.97,0004.10,0003.86
2023-06-05 09:50:00,SystemResetWarning,0835.3,5.00,000.00,030.3,028.8,000.0,038.7,031.9,29.9,0001.4,0005.97,0004.01,0003.81
2023-06-05 09:51:00,SystemResetWarning,0835.3,5.00,000.00,030.3,028.8,000.0,038.7,031.9,29.8,0001.0,0005.84,0003.95,0003.74
2023-06-05 09:52:00,SystemResetWarning,0835.2,5.01,000.00,030.3,028.8,000.0,038.7,031.9,29.8,0000.0,0005.89,0003.92,0003.70
2023-06-05 09:53:00,SystemResetWarning,0835.2,4.99,000.00,030.3,028.8,000.0,038.7,031.9,29.7,0000.0,0005.89,0003.91,0003.67
2023-06-05 09:54:00,SystemResetWarning,0835.2,5.00,000.00,030.3,028.8,000.0,038.7,031.9,29.7,0000.0,0005.79,0003.87,0003.65
2023-06-05 09:55:00,SystemResetWarning,0835.2,5.00,000.00,030.3,028.8,000.0,038.7,031.9,29.8,0000.0,0005.74,0003.87,0003.65
2023-06-05 09:56:00,SystemResetWarning,0835.2,5.00,000.00,030.3,028.8,000.0,038.7,031.9,29.8,0000.0,0005.66,0003.85,0003.63
2023-06-05 09:57:00,SystemResetWarning,0835.2,5.00,000.00,030.3,028.8,000.0,038.7,032.0,29.8,0000.0,0005.85,0003.85,0003.62
2023-06-05 09:58:00,SystemResetWarning,0835.1,5.00,000.00,030.3,028.8,000.0,038.7,031.9,29.8,0000.0,0005.97,0003.84,0003.61
2023-06-05 09:59:00,SystemResetWarning,0835.1,5.01,000.00,030.3,028.8,000.0,038.7,031.9,29.9,0000.0,0005.85,0003.83,0003.61
